TimeMDT,TemperatureF,Dew PointF,Humidity,Sea Level PressureIn,VisibilityMPH,Wind Direction,Wind SpeedMPH,Gust SpeedMPH,PrecipitationIn,Events,Conditions,WindDirDegrees,DateUTC
12:53 AM,63.0,55.9,78,29.88,10.0,ENE,12.7,-,0.01,,Clear,70,2013-08-02 06:53:00
1:53 AM,61.0,57.0,87,29.91,10.0,NE,10.4,-,N/A,,Clear,40,2013-08-02 07:53:00
2:53 AM,61.0,55.9,83,29.88,10.0,NE,12.7,20.7,N/A,,Clear,50,2013-08-02 08:53:00
3:53 AM,61.0,57.0,87,29.98,5.0,NNE,3.5,-,0.02,Rain,Rain,20,2013-08-02 09:53:00
4:53 AM,60.1,55.9,86,29.87,7.0,East,21.9,27.6,0.17,Rain,Rain,80,2013-08-02 10:53:00
5:53 AM,61.0,55.0,81,29.94,10.0,Calm,Calm,-,0.01,,Clear,0,2013-08-02 11:53:00
6:53 AM,60.1,57.0,90,29.96,10.0,NE,3.5,-,N/A,,Partly Cloudy,40,2013-08-02 12:53:00
7:53 AM,61.0,57.0,87,29.94,10.0,ESE,6.9,-,0.01,,Mostly Cloudy,120,2013-08-02 13:53:00
8:53 AM,64.0,57.9,80,29.92,10.0,East,5.8,-,N/A,,Clear,100,2013-08-02 14:53:00
9:17 AM,64.4,57.2,77,29.97,10.0,ESE,6.9,-,N/A,,Mostly Cloudy,110,2013-08-02 15:17:00
9:53 AM,64.9,57.0,75,29.93,10.0,SSE,11.5,-,N/A,,Overcast,150,2013-08-02 15:53:00
10:53 AM,68.0,57.9,70,29.95,10.0,SE,6.9,-,N/A,,Mostly Cloudy,140,2013-08-02 16:53:00
11:04 AM,69.8,57.2,64,29.98,10.0,SE,6.9,-,N/A,,Partly Cloudy,130,2013-08-02 17:04:00
11:37 AM,69.8,57.2,64,29.99,10.0,East,5.8,-,N/A,,Mostly Cloudy,90,2013-08-02 17:37:00
11:53 AM,70.0,57.9,65,29.96,10.0,ENE,6.9,-,N/A,,Overcast,70,2013-08-02 17:53:00
12:16 PM,69.8,57.2,64,30.00,10.0,ENE,9.2,-,N/A,,Overcast,60,2013-08-02 18:16:00
12:53 PM,72.0,57.9,61,29.95,10.0,NE,15.0,-,N/A,,Overcast,40,2013-08-02 18:53:00
1:53 PM,73.9,59.0,59,29.94,10.0,ENE,12.7,-,N/A,,Mostly Cloudy,60,2013-08-02 19:53:00
2:53 PM,73.9,57.9,57,29.95,10.0,NE,11.5,-,N/A,,Overcast,50,2013-08-02 20:53:00
3:53 PM,75.9,57.9,54,29.94,10.0,Variable,4.6,-,N/A,,Mostly Cloudy,0,2013-08-02 21:53:00
4:53 PM,77.0,59.0,54,29.93,10.0,NE,4.6,-,N/A,,Overcast,40,2013-08-02 22:53:00
5:53 PM,77.0,59.0,54,29.93,10.0,NNE,12.7,-,N/A,,Mostly Cloudy,30,2013-08-02 23:53:00
7:53 PM,66.9,57.9,73,29.98,10.0,NNE,16.1,-,N/A,,Mostly Cloudy,30,2013-08-03 01:53:00
8:53 PM,64.0,57.0,78,30.00,10.0,NNE,15.0,-,N/A,,Mostly Cloudy,30,2013-08-03 02:53:00
9:53 PM,63.0,55.9,78,30.03,10.0,ENE,13.8,-,N/A,,Mostly Cloudy,60,2013-08-03 03:53:00
10:53 PM,61.0,55.9,83,30.04,10.0,NE,6.9,-,N/A,,Clear,50,2013-08-03 04:53:00
11:53 PM,59.0,55.0,87,30.06,10.0,NNE,12.7,-,N/A,,Clear,20,2013-08-03 05:53:00